#timestamp,LO_Frequency,Hit,StdDev 
1514001615.5,286047000.5,N
1514001635.4,286046999.7,N
1514001655.2,286046999.7,N
1514001675.0,286046999.9,N
1514001675.9,286046999.9,N
1514001695.8,286046997.1,N
1514001715.6,286046994.9,N
1514001735.4,286046998.4,N
1514001755.3,286047001.2,N
1514001775.1,286046996.9,N
1514001776.0,286046996.9,N
1514001795.8,286046997.1,N
1514001815.7,286046993.8,N
1514001835.5,286046995.7,N
1514001855.3,286046996.3,N
1514001875.1,286046991.7,N
1514001895.9,286046992.7,N
1514001915.7,286046991.8,N
1514001935.5,286046994.5,N
1514001955.4,286046993.7,N
1514001975.2,286046996.5,N
1514001995.0,286046997.4,N
1514001995.9,286046997.4,N
1514002015.8,286046996.5,N
1514002035.6,286046996.2,N
1514002055.4,286046992.5,N
1514002075.3,286046990.1,Y
1514002095.1,286046998.5,P
1514002115.8,286046998.1,N
1514002135.7,286047003.1,P
1514002155.5,286047005.8,N
1514002175.3,286047004.7,N
1514002195.2,286047006.3,N
1514002215.9,286047009.2,N
1514002235.7,286047008.5,N
1514002255.5,286047012.7,N
1514002275.4,286047015.0,N
1514002295.2,286047015.9,N
1514002315.0,286047016.4,N
1514002315.9,286047016.4,N
1514002335.8,286047015.8,N
1514002355.6,286047020.6,Y
1514002375.4,286047019.8,P
1514002395.3,286047018.0,P
1514002415.1,286047017.7,P
1514002435.8,286047017.0,Y
1514002455.7,286047002.0,P
1514002475.5,286047004.8,N
1514002495.3,286047006.6,N
1514002515.2,286047005.3,N
1514002535.9,286047007.8,N
1514002555.7,286047007.8,N
1514002575.6,286047009.2,N
1514002595.4,286047012.2,Y
1514002615.2,286047007.2,P
1514002635.1,286047006.8,P
1514002636.0,286047006.8,P
1514002655.8,286047009.0,Y
1514002675.6,286047000.6,P
1514002695.5,286047004.2,N
1514002715.3,286047004.5,N
1514002735.1,286047004.7,N
1514002755.9,286047002.5,N
1514002775.7,286046999.7,N
1514002795.5,286047000.3,N
1514002815.3,286047001.4,N
1514002835.2,286047002.2,N
1514002855.0,286046999.6,N
1514002855.9,286046999.6,N
1514002875.7,286046996.8,N
1514002895.6,286046997.7,N
1514002915.4,286046993.7,N
1514002935.2,286046992.1,N
1514002955.1,286046988.5,N
1514002956.0,286046988.5,N
1514002975.8,286046986.1,N
1514002995.6,286046983.9,N
1514003015.5,286046986.1,N
1514003035.3,286046985.8,N
1514003055.1,286046983.0,N
1514003075.9,286046978.6,N
1514003095.7,286046977.2,N
1514003115.5,286046970.6,Y
1514003135.4,286046974.8,P
1514003155.2,286046973.7,N
1514003175.0,286046970.5,P
1514003175.9,286046970.5,Y
1514003195.8,286046989.7,P
1514003215.6,286046990.5,N
1514003235.4,286046988.5,N
1514003255.2,286046986.6,N
1514003275.1,286046985.0,Y
1514003276.0,286046985.0,P
1514003295.8,286047000.3,N
1514003315.7,286047002.8,N
1514003335.5,286047000.9,N
1514003355.3,286046996.5,N
1514003375.1,286046995.7,N
1514003395.9,286046995.5,N
1514003415.7,286046995.2,N
1514003435.5,286046996.6,N
1514003455.4,286046996.2,N
1514003475.2,286046995.7,N
1514003495.0,286046999.9,N
1514003495.9,286046999.9,N
1514003515.8,286047002.2,N
1514003535.6,286047002.8,N
1514003555.4,286047000.4,N
1514003575.3,286046997.1,N
1514003595.1,286046993.9,N
1514003596.0,286046993.9,N
1514003615.8,286046990.2,N
1514003635.7,286046990.4,N
1514003655.5,286046988.2,N
1514003675.3,286046986.7,N
1514003695.1,286046987.9,N
1514003715.9,286046989.4,N
1514003735.7,286046989.3,N
1514003755.5,286046989.0,N
1514003775.4,286046991.1,N
1514003795.2,286046988.5,N
1514003815.0,286046991.6,N
1514003815.9,286046991.6,N
1514003835.8,286046990.4,N
1514003855.6,286046992.6,N
1514003875.4,286046994.3,N
1514003895.3,286046992.1,N
1514003915.1,286046991.4,N
1514003916.0,286046991.4,N
1514003935.8,286046990.9,N
1514003955.7,286046991.3,N
1514003975.5,286046988.9,N
1514003995.3,286046989.9,N
1514004015.1,286046989.5,N
1514004035.9,286046991.0,N
1514004055.7,286046991.6,N
1514004075.5,286046991.3,N
1514004095.4,286046991.4,Y
1514004115.2,286046998.3,P
1514004135.0,286046996.7,N
1514004135.9,286046996.7,N
1514004155.8,286046997.1,N
1514004175.6,286046999.0,N
1514004195.4,286047001.0,N
1514004215.3,286047002.4,N
1514004235.1,286046998.4,N
1514004236.0,286046998.4,N
1514004255.8,286046998.6,N
1514004275.7,286046998.9,N
1514004295.5,286046996.3,N
1514004315.3,286046994.0,N
1514004335.2,286046998.1,N
1514004355.9,286047000.9,N
1514004375.7,286046999.0,N
1514004395.5,286046998.5,N
1514004415.4,286046997.0,N
1514004435.2,286046995.1,N
1514004455.0,286046995.9,N
1514004455.9,286046995.9,N
1514004475.8,286046995.3,N
1514004495.6,286046997.9,N
1514004515.4,286046999.6,N
1514004535.3,286047000.5,N
1514004555.1,286046998.5,N
1514004556.0,286046998.5,N
1514004575.8,286047005.1,N
1514004595.7,286047010.0,Y
1514004615.5,286047015.8,P
1514004635.3,286047018.5,N
1514004655.2,286047017.7,N
1514004675.9,286047023.9,N
1514004695.7,286047024.6,N
1514004715.6,286047028.1,Y
1514004735.4,286047012.1,P
1514004755.2,286047016.5,P
1514004775.1,286047019.7,P
1514004776.0,286047019.7,Y
1514004795.8,286047001.5,P
1514004815.6,286047001.6,N
1514004835.5,286047001.2,N
1514004855.3,286046996.1,N
1514004875.1,286046993.4,N
1514004895.9,286046999.5,N
1514004915.7,286047000.5,N
1514004935.5,286046998.1,N
1514004955.3,286046998.8,N
1514004975.2,286047000.3,N
1514004995.0,286047003.6,N
1514004995.9,286047003.6,N
1514005015.7,286047004.8,N
1514005035.6,286047005.6,N
1514005055.4,286047007.3,N
1514005075.2,286047003.2,N
1514005095.1,286046999.8,N
1514005096.0,286046999.8,N
1514005115.8,286046997.8,N
1514005135.6,286046992.2,N
1514005155.5,286046987.4,N
1514005175.3,286046982.7,Y
1514005195.1,286046986.3,P
